This is the latest recevied weather packets stored in our database for station/object EA1FWM-12. If no packets are shown the sender has not sent any weather packets the latest 10 day(s).
| Time | Temp. | Humidity | Pressure | Rain* | Wind** | Luminosity | Snow |
|---|---|---|---|---|---|---|---|
| 1787838418 | 12.78° C | 82% | 1014.8 hPa | - | - | - | - |
| 1787838343 | 12.78° C | 82% | 1014.8 hPa | - | - | - | - |
| 1787837437 | 13.89° C | 78% | 1014.6 hPa | - | - | - | - |
| 1787835646 | 16.11° C | 80% | 1013.8 hPa | - | - | - | - |
| 1787834746 | 15.56° C | 81% | 1013.8 hPa | - | - | - | - |
| 1787833839 | 15.56° C | 83% | 1013.6 hPa | - | - | - | - |
| 1787832942 | 13.89° C | 84% | 1013.8 hPa | - | - | - | - |
| 1787831292 | 13.33° C | 86% | 1013.6 hPa | - | - | - | - |
| 1787830393 | 13.33° C | 85% | 1013.6 hPa | - | - | - | - |
| 1787829494 | 12.78° C | 85% | 1013.5 hPa | - | - | - | - |
| 1787828594 | 12.78° C | 84% | 1013.7 hPa | - | - | - | - |
| 1787827694 | 12.78° C | 85% | 1013.7 hPa | - | - | - | - |
| 1787825895 | 12.22° C | 84% | 1013.8 hPa | - | - | - | - |
| 1787824995 | 13.33° C | 84% | 1013.8 hPa | - | - | - | - |
| 1787824095 | 13.89° C | 84% | 1013.7 hPa | - | - | - | - |
| 1787823195 | 14.44° C | 85% | 1013.7 hPa | - | - | - | - |
| 1787822294 | 14.44° C | 86% | 1013.4 hPa | - | - | - | - |
| 1787821394 | 12.22° C | 89% | 1013.2 hPa | - | - | - | - |
| 1787820494 | 10.56° C | 88% | 1013.3 hPa | - | - | - | - |
| 1787819595 | 10.56° C | 87% | 1013.2 hPa | - | - | - | - |
| 1787818695 | 10.56° C | 87% | 1013.9 hPa | - | - | - | - |
| 1787817795 | 10.56° C | 87% | 1013.7 hPa | - | - | - | - |
| 1787816895 | 10.56° C | 88% | 1013.3 hPa | - | - | - | - |
| 1787815996 | 10° C | 88% | 1013.3 hPa | - | - | - | - |
| 1787815096 | 10° C | 88% | 1013.7 hPa | - | - | - | - |
* Rain since midnight (hover to see other rain measurements)
** Current wind speed in m/s (hover to see current wind gust speed)